{"data":{"norad_id":64743,"intl_designator":"2025-144V","name":"STARLINK-34236","alt_names":[],"object_type":"PAYLOAD","status":"ACTIVE","operator":null,"country":"US","launch_date":"2025-07-02","launch_site_code":"AFETR","launch_vehicle":null,"mission":null,"orbit_class":"UNKNOWN","rcs_meters":null,"size_class":null,"mass_kg":null,"dimensions":null,"purposes":["comms"],"wikipedia_slug":null,"has_3d_model":false,"image_url":null,"decayed_at":null,"tle_current":{"epoch":"2026-05-25T02:53:25.615104Z","epoch_age_seconds":61735,"freshness":"FRESH","line1":"1 64743U 25144V   26145.12043536  .00015424  00000+0  53173-3 0  9999","line2":"2 64743  53.1587 186.0324 0001213  88.9172 271.1968 15.30205100 51413","mean_motion":15.302051,"eccentricity":0.0001213,"inclination_deg":53.1587,"raan_deg":186.0324,"arg_perigee_deg":88.9172,"mean_anomaly_deg":271.1968,"bstar":0.00053173,"rev_number":5141,"period_min":94.105032064002,"perigee_km":474.36853202199,"apogee_km":476.03115153981,"semimajor_km":6853.3368417809,"source":"CELESTRAK","updated_at":"2026-05-25T13:38:20.548829Z"}}}